Eagle Creek, IN

6:09 PM EDT on June 20, 2018 (GMT -0400)
Eagle Creek

Weather History for KEYE - December, 2017

Change the Weather History Date:

Thursday, December 7, 2017

  Actual Average Record
Temperature  
Mean Temperature 29 °F 34 °F  
Max Temperature 36 °F 41 °F 61 °F (2004)
Min Temperature 22 °F 27 °F 6 °F (2005)
Degree Days  
Heating Degree Days 36 31  
Month to date heating degree days 161 206  
Since 1 July heating degree days 1056 1230  
Cooling Degree Days 0 0  
Month to date cooling degree days 0 0  
Year to date cooling degree days 1146 1058  
Moisture  
Dew Point 16 °F    
Average Humidity 62    
Maximum Humidity 71    
Minimum Humidity 53    
Precipitation  
Precipitation T in 0.09 in 0.68 in (2004)
Month to date precipitation 0.15 0.62  
Year to date precipitation 39.46 38.33  
Sea Level Pressure  
Sea Level Pressure 30.18 in    
Wind  
Wind Speed 11 mph (West)    
Max Wind Speed 21 mph    
Max Gust Speed 27 mph    
Visibility 10 miles    
Events Snow    
T = Trace of Precipitation, MM = Missing Value Source: NWS Daily Summary

Daily Weather History Graph

Daily Weather History Graph

Search for Another Location

Airport or City:

Astronomy

Dec. 07, 2017 Rise Set
Actual Time 7:53 AM EST 5:20 PM EST
Civil Twilight 7:23 AM EST 5:50 PM EST
Nautical Twilight 6:49 AM EST 6:24 PM EST
Astronomical Twilight 6:16 AM EST 6:56 PM EST
Moon 10:06 PM EST (12/7) 11:32 AM EST (12/7)
Length of Visible Light 10h 27m
Length of Day
9h 26m
Waning Gibbous, 78% of the Moon is Illuminated
Dec 7
Waning Gibbous
Dec 10
Last Quarter
Dec 18
New
Dec 26
First Quarter
Jan 1
Full

Hourly Weather History & Observations

Time (EST) Temp. Windchill Dew Point Humidity Pressure Visibility Wind Dir Wind Speed Gust Speed Precip Events Conditions
12:53 AM 35.1 °F 27.4 °F 25.0 °F 67% 30.10 in 10.0 mi West 10.4 mph - N/A   Clear
1:53 AM 33.1 °F 24.9 °F 25.0 °F 72% 30.09 in 10.0 mi West 10.4 mph - N/A   Clear
2:31 AM 33.1 °F 23.4 °F 24.1 °F 70% 30.08 in 10.0 mi NW 13.8 mph 19.6 mph N/A   Mostly Cloudy
2:53 AM 30.9 °F 21.2 °F 19.9 °F 64% 30.12 in 10.0 mi NW 12.7 mph - N/A   Overcast
3:53 AM 30.9 °F 20.7 °F 16.0 °F 54% 30.12 in 10.0 mi WNW 13.8 mph - N/A   Overcast
4:53 AM 28.9 °F 19.8 °F 19.0 °F 67% 30.13 in 9.0 mi NW 10.4 mph - 0.00 in Snow Light Snow
5:53 AM 27.0 °F 15.6 °F 17.1 °F 66% 30.14 in 10.0 mi NW 13.8 mph - 0.00 in   Overcast
6:53 AM 24.1 °F 12.5 °F 16.0 °F 71% 30.16 in 10.0 mi WNW 12.7 mph - N/A   Clear
7:15 AM 25.0 °F 12.6 °F 16.0 °F 69% 30.14 in 10.0 mi WNW 15.0 mph - N/A   Mostly Cloudy
7:53 AM 26.1 °F 15.6 °F 16.0 °F 66% 30.17 in 10.0 mi WNW 11.5 mph - N/A   Overcast
8:53 AM 24.1 °F 11.5 °F 16.0 °F 71% 30.19 in 10.0 mi WNW 15.0 mph - N/A   Overcast
9:53 AM 25.0 °F 13.6 °F 16.0 °F 69% 30.21 in 6.0 mi WNW 12.7 mph - 0.00 in Snow Light Snow
10:53 AM 24.1 °F 10.6 °F 14.0 °F 65% 30.23 in 9.0 mi WNW 17.3 mph 23.0 mph 0.00 in Snow Light Snow
11:53 AM 24.1 °F 12.0 °F 12.0 °F 60% 30.23 in 9.0 mi West 13.8 mph - 0.00 in Snow Light Snow
12:53 PM 24.1 °F 11.0 °F 12.9 °F 62% 30.22 in 9.0 mi WNW 16.1 mph 25.3 mph 0.00 in   Overcast
1:53 PM 28.0 °F 17.0 °F 14.0 °F 56% 30.19 in 10.0 mi WNW 13.8 mph 20.7 mph N/A   Overcast
2:43 PM 26.1 °F 15.0 °F 12.9 °F 58% 30.16 in 10.0 mi West 12.7 mph - N/A   Mostly Cloudy
2:53 PM 27.0 °F 16.7 °F 14.0 °F 58% 30.19 in 10.0 mi West 11.5 mph 19.6 mph N/A   Mostly Cloudy
3:53 PM 27.0 °F 18.0 °F 12.9 °F 56% 30.20 in 10.0 mi West 9.2 mph - N/A   Mostly Cloudy
4:53 PM 27.0 °F 17.3 °F 14.0 °F 58% 30.20 in 10.0 mi West 10.4 mph - N/A   Partly Cloudy
5:53 PM 26.1 °F 20.5 °F 12.9 °F 58% 30.22 in 10.0 mi Variable 4.6 mph - N/A   Clear
6:53 PM 24.1 °F 18.2 °F 14.0 °F 65% 30.23 in 10.0 mi SW 4.6 mph - N/A   Clear
7:53 PM 23.0 °F 18.4 °F 14.0 °F 68% 30.23 in 10.0 mi WSW 3.5 mph - N/A   Clear
8:53 PM 21.9 °F 15.7 °F 14.0 °F 72% 30.22 in 10.0 mi SW 4.6 mph - N/A   Clear
9:53 PM 23.0 °F 18.4 °F 14.0 °F 68% 30.20 in 10.0 mi WSW 3.5 mph - N/A   Clear
10:53 PM 21.9 °F 12.5 °F 12.9 °F 68% 30.19 in 10.0 mi WNW 8.1 mph - N/A   Clear
11:53 PM 21.9 °F 12.5 °F 10.9 °F 63% 30.19 in 10.0 mi West 8.1 mph - N/A   Clear